Regional Weather Roundup
Issued by NWS

Home | Current Version | Previous Version | Graphics & Text | Print | Product List | Glossary Off
Versions: 1 2 3 4 5 6 7 8 9 10 11 12 13 14 15 16 17 18 19 20 21 22 23 24 25 26 27 28 29 30 31 32 33 34 35 36 37 38 39 40 41 42 43 44 45 46 47 48 49 50

694
ASUS43 KDTX 221610
RWRMI
MICHIGAN HOURLY REGIONAL WEATHER ROUNDUP
NATIONAL WEATHER SERVICE DETROIT/PONTIAC MI
1100 AM EST MON JAN 22 2018

NOTE: "FAIR" INDICATES FEW OR NO CLOUDS BELOW 12,000 FEET WITH NO
SIGNIFICANT WEATHER AND/OR OBSTRUCTION TO VISIBILITY.

MIZ047>049-052>055-059>063-066>070-074>076-081>083-221700-
SOUTHEAST LOWER MICHIGAN

CITY           SKY/WX    TMP DP  RH WIND       PRES   REMARKS
ADRIAN         LGT RAIN  47  44  90 S9        29.80S
ALMA           LGT SNOW  35  35 100 E13       29.81S WCI  26
ANN ARBOR      CLOUDY    45  45 100 SE5       29.81R
BAD AXE        LGT SNOW  36  36 100 E8G17     29.86F WCI  29
CARO           MIX PCPN  36  35  99 E7        29.83F WCI  30
DETROIT CITY   LGT RAIN  44  44 100 SE5       29.82F FOG
DETROIT        CLOUDY    47  45  93 SE5       29.82F
FLINT          LGT RAIN  38  37  97 E10       29.78F FOG     WCI  31
GROSSE ILE     CLOUDY    45  44  97 SE9       29.80F
HILLSDALE      CLOUDY    46  45  93 S9G16     29.74F
HOWELL         CLOUDY    44  44 100 S10       29.78S FOG

CITY           SKY/WX    TMP DP  RH WIND       PRES   REMARKS
JACKSON        PTSUNNY   48  46  93 S12       29.75S
LAMBERTVILLE   FAIR      51  46  83 S9G16     29.81R
LANSING        LGT RAIN  40  40 100 NE8       29.76S FOG     WCI  34
LAPEER         LGT RAIN  37  37 100 E3        29.82S
MONROE         PTSUNNY   47  45  93 S12       29.80S
MT. CLEMENS    CLOUDY    43  41  95 SE9       29.83F FOG
PONTIAC        LGT RAIN  40  40 100 SE7       29.79F FOG
PORT HOPE        N/A     34  33  96 E17       29.86F WCI  23
PORT HURON     MIX PCPN  41  41 100 SE7       29.86S
TRI CITIES     RAIN      35  35 100 E13       29.82F FOG     WCI  26
MIDLAND        MIX PCPN  36  35  97 E10G21    29.83R WCI  28
TROY           CLOUDY    40  40  97 NE3       29.83F FOG
SAGINAW HB     LGT SNOW  34  34 100 E8        29.82F WCI  27
$$
MIZ043>046-050>051-056>058-064>065-071>073-077>080-221700-
SOUTHWEST LOWER MICHIGAN

CITY           SKY/WX    TMP DP  RH WIND       PRES   REMARKS
BATTLE CREEK   LGT RAIN  49  46  90 S10       29.70F
BENTON HARBOR  CLOUDY    51  47  86 S12G23    29.65S
BIG RAPIDS     LGT SNOW  35  33  91 E8        29.74F WCI  29
COLDWATER      LGT RAIN  49  49 100 S9G16     29.72F
FREMONT        RAIN      37  34  89 E16G23    29.67F WCI  27
HOLLAND        LGT RAIN  40  39  97 E16       29.68S WCI  31
GRAND RAPIDS   RAIN      38  38 100 E15       29.71F FOG     WCI  29
IONIA          LGT RAIN  36  36 100 NE13      29.74F WCI  27
KALAMAZOO      LGT RAIN  50  47  89 S12G20    29.68F FOG
LUDINGTON      LGT RAIN  37  37  99 E20G26    29.66F WCI  26
MARSHALL       LGT RAIN  48  48  99 S9G16     29.71F
MOUNT PLEASANT LGT SNOW  37  35  95 E13       29.79F WCI  28
MUSKEGON       LGT RAIN  39  36  89 E12       29.68F FOG     WCI  32
SOUTH HAVEN    CLOUDY    49  48  95 S7        29.67S
$$
MIZ016>042-221700-
NORTHERN LOWER MICHIGAN

CITY           SKY/WX    TMP DP  RH WIND       PRES   REMARKS
ALPENA         LGT SNOW  33  32  96 E17G25    29.94F VSB 1   WCI  22
BEAVER ISLAND  CLOUDY    31  28  90 E20G29    29.91F WCI  18
BELLAIRE       LGT SNOW  35  34  96 NE10      29.84F WCI  27
CADILLAC       LGT SNOW  33  33  99 E22G30    29.74F WCI  21
CHARLEVOIX     LGT SNOW  33  32  96 E16G22    29.89F WCI  23
FRANKFORT      LGT RAIN  37  36  94 E9G21     29.75F WCI  31
GAYLORD        FRZ RAIN  31  31 100 E12G22    29.85F FOG     WCI  22
GRAYLING       RAIN      33  31  94 E18G24    29.84F WCI  21
HARBOR SPRINGS CLOUDY    31  29  94 NE21G32   29.89F WCI  18
HOUGHTON LAKE  LGT RAIN  34  32  92 E17G25    29.81F FOG     WCI  23
OSCODA         LGT SNOW  34  34  99 NE20      29.88F WCI  23
PELLSTON       CLOUDY    30  28  92 E21G29    29.93F WCI  17
ROGERS CITY    CLOUDY    30  28  93 E17G24    29.98F WCI  18
TRAVERSE CITY  LGT RAIN  37  34  89 E9G18     29.80F FOG     WCI  30
$$
MIZ007>008-015-221700-
EASTERN UPPER MICHIGAN

CITY           SKY/WX    TMP DP  RH WIND       PRES   REMARKS
KINROSS        CLOUDY    26  21  81 E17       29.98F WCI  13
MACKINAC ISLAN CLOUDY    28  25  87 E18G28    29.96F WCI  15
NEWBERRY       CLOUDY    28  25  89 NE13G20   29.95F WCI  17
S. S. MARIE    CLOUDY    28  20  71 E10       30.00F WCI  19
MUNISING         N/A     32  30  92 NE9       29.95F WCI  24
$$
MIZ004>006-011>014-085-221700-
CENTRAL UPPER MICHIGAN

CITY           SKY/WX    TMP DP  RH WIND       PRES   REMARKS
ESCANABA       LGT SNOW  33  30  88 NE15G22   29.89F FOG     WCI  23
MENOMINEE      LGT SNOW  33  32  96 NE22G31   29.81F VSB 1   WCI  21
SAWYER-GWINN   CLOUDY    28  27  93 NE13      29.92F FOG     WCI  18
$$
MIZ001>003-009>011-084-221700-
WESTERN UPPER MICHIGAN

CITY           SKY/WX    TMP DP  RH WIND       PRES   REMARKS
IRON MOUNTAIN  CLOUDY    32  29  88 NE9G16    29.85F FOG     WCI  24
HOUGHTON       CLOUDY    26  22  84 E13       29.99S WCI  15
COPPER HARBOR    N/A     27  23  85 E10G21    30.04F WCI  17
IRONWOOD       MIX PCPN  27  25  92 NE13      29.91F FOG     WCI  16
$$

ABBREVIATIONS USED IN REMARKS
   TC - TEMPERATURE IN CELSIUS
  WCI - WIND CHILL INDEX
   HX - HEAT INDEX
  VSB - VISIBILITY





USA.gov is the U.S. government's official web portal to all federal, state and local government web resources and services.